This is the latest recevied weather packets stored in our database for station/object KB9ZI. If no packets are shown the sender has not sent any weather packets the latest 10 day(s).
| Time | Temp. | Humidity | Pressure | Rain* | Wind** | Luminosity | Snow |
|---|---|---|---|---|---|---|---|
| 1777571192 | 9.44° C | 56% | 1017.8 hPa | 0 mm | - | - | - |
| 1777571073 | 9.44° C | 57% | 1017.8 hPa | 0 mm | - | - | - |
| 1777571016 | 8.89° C | 59% | 1017.9 hPa | 0 mm | - | - | - |
| 1777570839 | 8.89° C | 58% | 1017.8 hPa | 0 mm | - | - | - |
| 1777570713 | 8.89° C | 59% | 1017.8 hPa | 0 mm | - | - | - |
| 1777570589 | 8.33° C | 58% | 1017.8 hPa | 0 mm | - | - | - |
| 1777570467 | 8.33° C | 58% | 1017.8 hPa | 0 mm | - | - | - |
| 1777570449 | 8.33° C | 59% | 1017.8 hPa | 0 mm | - | - | - |
| 1777570226 | 8.33° C | 57% | 1017.8 hPa | 0 mm | - | - | - |
| 1777570105 | 8.89° C | 57% | 1017.8 hPa | 0 mm | - | - | - |
| 1777569969 | 8.89° C | 59% | 1017.9 hPa | 0 mm | - | - | - |
| 1777569845 | 8.89° C | 57% | 1017.8 hPa | 0 mm | - | - | - |
| 1777569785 | 8.89° C | 57% | 1017.8 hPa | 0 mm | - | - | - |
| 1777569605 | 8.89° C | 55% | 1017.9 hPa | 0 mm | - | - | - |
| 1777569482 | 8.89° C | 56% | 1017.9 hPa | 0 mm | - | - | - |
| 1777569362 | 8.89° C | 59% | 1017.9 hPa | 0 mm | - | - | - |
| 1777569308 | 8.89° C | 59% | 1018 hPa | 0 mm | - | - | - |
| 1777569177 | 8.89° C | 59% | 1018 hPa | 0 mm | - | - | - |
| 1777568987 | 8.33° C | 60% | 1018 hPa | 0 mm | - | - | - |
| 1777568860 | 7.78° C | 59% | 1017.9 hPa | 0 mm | - | - | - |
| 1777568739 | 7.78° C | 59% | 1018 hPa | 0 mm | - | - | - |
| 1777568616 | 7.78° C | 56% | 1017.9 hPa | 0 mm | - | - | - |
| 1777568497 | 7.78° C | 57% | 1017.9 hPa | 0 mm | - | - | - |
| 1777568371 | 8.33° C | 55% | 1017.9 hPa | 0 mm | - | - | - |
| 1777568350 | 8.89° C | 57% | 1017.9 hPa | 0 mm | - | - | - |
* Rain latest hour (hover to see other rain measurements)
** Current wind speed in m/s (hover to see current wind gust speed)